Hill City, KS

9:25 AM CDT on April 30, 2017 (GMT -0500)
Hill City Municipal

Weather History for KHLC - May, 2014

Change the Weather History Date:

Saturday, May 17, 2014

  Actual Average Record
Temperature  
Mean Temperature 47 °F 63 °F  
Max Temperature 60 °F 76 °F 103 °F (1927)
Min Temperature 34 °F 50 °F 30 °F (1945)
Degree Days  
Heating Degree Days 17    
Moisture  
Dew Point 38 °F    
Average Humidity 69    
Maximum Humidity 93    
Minimum Humidity 49    
Precipitation  
Precipitation T in 0.14 in 0.63 in (2005)
Month to date precipitation 0.02 2.04  
Year to date precipitation 4.05 6.76  
Sea Level Pressure  
Sea Level Pressure 30.14 in    
Wind  
Wind Speed 5 mph (SE)    
Max Wind Speed 13 mph    
Max Gust Speed -    
Visibility 10 miles    
Events Rain    
T = Trace of Precipitation, MM = Missing Value Source: NWS Daily Summary

Daily Weather History Graph

Daily Weather History Graph

Search for Another Location

Airport or City:

Trip Planner

Search our weather history database for the weather conditions in past years. The results will help you decide how hot, cold, wet, or windy it might be!

Date:

Astronomy

May. 17, 2014 Rise Set
Actual Time 6:23 AM CDT 8:48 PM CDT
Civil Twilight 5:53 AM CDT 9:18 PM CDT
Nautical Twilight 5:15 AM CDT 9:56 PM CDT
Astronomical Twilight 4:34 AM CDT 10:38 PM CDT
Moon 11:50 PM CDT (5/17) 9:08 AM CDT (5/17)
Length of Visible Light 15h 25m
Length of Day
14h 24m
Waning Gibbous, 89% of the Moon is Illuminated
May 17
Waning Gibbous
May 21
Last Quarter
May 28
New
Jun 5
First Quarter
Jun 12
Full

Hourly Weather History & Observations

Time (CDT) Temp. Windchill Dew Point Humidity Pressure Visibility Wind Dir Wind Speed Gust Speed Precip Events Conditions
12:53 AM 39.9 °F 35.8 °F 36.0 °F 86% 30.16 in 10.0 mi East 5.8 mph - N/A   Clear
1:53 AM 37.9 °F 34.4 °F 35.1 °F 89% 30.16 in 10.0 mi East 4.6 mph - N/A   Clear
2:53 AM 37.9 °F 34.4 °F 35.1 °F 89% 30.15 in 10.0 mi East 4.6 mph - N/A   Clear
3:53 AM 37.0 °F - 35.1 °F 93% 30.14 in 10.0 mi Calm Calm - N/A   Clear
4:53 AM 36.0 °F 33.3 °F 34.0 °F 93% 30.15 in 8.0 mi NE 3.5 mph - N/A   Clear
5:53 AM 36.0 °F - 33.1 °F 89% 30.16 in 9.0 mi Calm Calm - N/A   Clear
6:53 AM 36.0 °F - 33.1 °F 89% 30.15 in 8.0 mi Calm Calm - N/A   Clear
7:53 AM 37.9 °F - 36.0 °F 93% 30.17 in 7.0 mi Calm Calm - N/A   Clear
8:53 AM 43.0 °F 41.3 °F 37.9 °F 82% 30.18 in 10.0 mi SSE 3.5 mph - N/A   Clear
9:53 AM 48.9 °F - 39.0 °F 69% 30.17 in 10.0 mi SSE 6.9 mph - N/A   Clear
10:53 AM 54.0 °F - 37.0 °F 53% 30.16 in 10.0 mi SE 9.2 mph - N/A   Clear
11:53 AM 55.9 °F - 37.9 °F 51% 30.16 in 10.0 mi SSE 8.1 mph - N/A   Clear
1:53 PM 57.0 °F - 39.9 °F 53% 30.16 in 10.0 mi SE 9.2 mph - 0.00 in Rain Light Rain
2:53 PM 57.0 °F - 42.1 °F 57% 30.16 in 10.0 mi SE 8.1 mph - 0.00 in Rain Light Rain
3:53 PM 59.0 °F - 43.0 °F 55% 30.13 in 10.0 mi SSE 5.8 mph - 0.00 in   Overcast
4:53 PM 60.1 °F - 41.0 °F 49% 30.12 in 10.0 mi SSE 8.1 mph - N/A   Overcast
5:53 PM 59.0 °F - 41.0 °F 51% 30.10 in 10.0 mi SE 12.7 mph - N/A   Overcast
6:53 PM 57.9 °F - 41.0 °F 53% 30.10 in 10.0 mi SE 11.5 mph - N/A   Overcast
7:53 PM 57.9 °F - 39.9 °F 51% 30.09 in 10.0 mi SSE 10.4 mph - N/A   Overcast
9:53 PM 54.0 °F - 39.9 °F 59% 30.10 in 10.0 mi SSE 4.6 mph - N/A   Mostly Cloudy
10:53 PM 52.0 °F - 39.9 °F 63% 30.12 in 10.0 mi South 5.8 mph - N/A   Mostly Cloudy
11:53 PM 53.1 °F - 39.9 °F 61% 30.09 in 10.0 mi SE 10.4 mph - N/A   Mostly Cloudy